Location: Casteau
(50.5142°N, 4.0161°E)
Time: 19:39:36
(UTC+00:00)

Tiros 1 - Pass Details

Date: 08 August 2021
Orbit: 630 x 663 km, 48.4° (Epoch: 28 September)

Event Time Altitude Azimuth Distance (km) Brightness Sun altitude
Rises 15:57:38 0° 237° (WSW) 2,988 11.6 29.9°
Reaches altitude 10° 16:00:03 10° 232° (SW) 2,076 10.9 29.5°
Maximum altitude 16:04:38 46° 159° (SSE) 883 8.1 28.8°
Drops below altitude 10° 16:09:12 10° 87° (E) 2,069 9.3 28.1°
Sets 16:11:36 0° 81° (E) 2,977 10.0 27.7°
